FW1728 Weather Reports


Display with metric or nautical units.
time (UTC)temp
F
wind
direction
speed
MPH
gust
MPH
rain 1hr
in
rain 24hr
in
rain mn
in
humidity
%
barometer
mb
20260510141542 68 282 3.0 7.0 0.00 0.00 0.00 91 1017.5
20260510140042 68 21 3.0 6.0 0.00 0.00 0.00 92 1017.5
20260510134542 67 275 2.0 8.0 0.00 0.11 0.00 92 1017.2
20260510133042 66 287 3.0 7.0 0.00 0.11 0.00 95 1017.1
20260510131546 66 5 1.0 5.0 0.00 0.11 0.00 95 1017.0
20260510130042 66 331 1.0 4.0 0.00 0.11 0.00 96 1016.8
20260510124540 65 350 1.0 4.0 0.00 0.25 0.00 96 1016.5
20260510123038 65 275 2.0 6.0 0.00 0.25 0.00 96 1016.3
20260510121545 65 287 1.0 3.0 0.00 0.25 0.00 97 1016.3
20260510120044 65 320 1.0 5.0 0.00 0.25 0.00 97 1016.1
20260510114538 65 352 2.0 4.0 0.00 0.97 0.00 97 1015.9
20260510113040 65 0 0.0 2.0 0.00 0.97 0.00 97 1015.6
20260510111538 65 0 0.0 2.0 0.00 0.97 0.00 97 1015.3
20260510110040 65 281 1.0 3.0 0.00 0.97 0.00 97 1015.0
20260510104539 65 276 0.0 2.0 0.00 1.09 0.00 97 1015.0
20260510103043 65 0 0.0 2.0 0.00 1.09 0.00 97 1014.7
20260510101538 65 201 0.0 2.0 0.00 1.09 0.00 97 1014.7
20260510100040 65 0 0.0 1.0 0.00 1.09 0.00 97 1014.6
20260510094548 65 155 0.0 1.0 0.00 1.27 0.00 97 1014.5
20260510093053 65 0 0.0 1.0 0.00 1.27 0.00 97 1014.3
20260510091543 65 0 0.0 1.0 0.00 1.27 0.00 97 1014.3
20260510090054 65 0 0.0 1.0 0.00 1.27 0.00 96 1014.2
20260510084541 65 154 0.0 1.0 0.00 1.41 0.00 96 1014.0
20260510083037 65 0 0.0 2.0 0.00 1.41 0.00 96 1013.8
20260510081540 65 0 0.0 0.0 0.00 1.41 0.00 96 1013.5
20260510080038 65 0 0.0 1.0 0.00 1.41 0.00 96 1013.4
20260510074537 65 0 0.0 2.0 0.00 1.41 0.00 96 1013.3
20260510073044 65 0 0.0 1.0 0.00 1.41 0.00 96 1013.0
20260510071550 65 0 0.0 1.0 0.00 1.41 0.00 96 1012.8
20260510070042 65 0 0.0 1.0 0.00 1.41 0.00 96 1012.8
20260510064538 65 0 0.0 2.0 0.00 1.41 0.00 96 1012.8
20260510063037 65 158 1.0 2.0 0.00 1.41 0.00 96 1013.0
20260510061542 65 158 0.0 2.0 0.00 1.41 0.00 96 1013.2
20260510060043 65 0 0.0 1.0 0.00 1.41 0.00 96 1013.3
20260510054541 66 0 0.0 1.0 0.00 1.41 0.00 96 1013.4
20260510053053 66 0 0.0 1.0 0.00 1.41 0.00 95 1013.4
20260510051544 66 0 0.0 1.0 0.00 1.41 0.00 95 1013.5
20260510050037 66 0 0.0 0.0 0.00 1.41 0.00 95 1013.7
20260510044537 66 0 0.0 0.0 0.00 1.41 1.41 95 1013.8
20260510043055 67 159 0.0 2.0 0.00 1.41 1.41 95 1013.8
20260510041542 67 0 0.0 0.0 0.00 1.41 1.41 94 1014.0
20260510040042 67 0 0.0 1.0 0.00 1.41 1.41 94 1013.9
20260510034540 67 0 0.0 1.0 0.00 1.41 1.41 93 1013.8
20260510033043 68 0 0.0 1.0 0.00 1.41 1.41 93 1013.7
20260510031548 68 0 0.0 1.0 0.00 1.41 1.41 93 1013.7
20260510030046 68 0 0.0 0.0 0.00 1.41 1.41 93 1014.1
20260510024542 68 0 0.0 0.0 0.00 1.41 1.41 93 1013.8
20260510023037 68 0 0.0 0.0 0.00 1.41 1.41 93 1013.6
20260510021545 68 0 0.0 1.0 0.00 1.41 1.41 93 1013.5
20260510020043 68 159 0.0 2.0 0.00 1.41 1.41 93 1013.6
20260510014545 68 0 0.0 2.0 0.00 1.41 1.41 93 1013.5
20260510013049 69 159 1.0 4.0 0.00 1.41 1.41 92 1013.3
20260510011544 69 143 1.0 2.0 0.00 1.41 1.41 92 1013.1
20260510010037 69 142 0.0 2.0 0.00 1.41 1.41 92 1012.8
20260510004541 69 0 0.0 2.0 0.00 1.41 1.41 91 1012.4
20260510003038 69 160 1.0 2.0 0.00 1.41 1.41 91 1012.4
20260510001544 69 158 0.0 3.0 0.00 1.41 1.41 91 1012.1
20260510000048 70 157 1.0 3.0 0.00 1.41 1.41 90 1011.7
20260509234540 70 136 1.0 2.0 0.00 1.41 1.41 90 1011.8
20260509233038 70 136 0.0 2.0 0.00 1.41 1.41 89 1011.7
20260509231545 70 0 0.0 2.0 0.00 1.41 1.41 89 1011.4
20260509230037 71 122 0.0 3.0 0.00 1.41 1.41 88 1011.6
20260509224543 71 161 0.0 2.0 0.00 1.41 1.41 88 1011.4
20260509223044 71 161 0.0 2.0 0.00 1.41 1.41 88 1011.4
20260509221542 71 0 0.0 4.0 0.00 1.41 1.41 87 1011.3
20260509220039 71 161 0.0 4.0 0.00 1.41 1.41 87 1011.2
20260509214549 72 157 1.0 2.0 0.00 1.41 1.41 85 1011.2
20260509213045 72 153 1.0 3.0 0.00 1.41 1.41 83 1011.6
20260509211535 73 154 1.0 4.0 0.00 1.41 1.41 81 1011.1
20260509210044 73 140 1.0 3.0 0.00 1.41 1.41 79 1010.9
20260509204546 73 153 1.0 4.0 0.00 1.46 1.41 79 1010.8
20260509203053 73 115 0.0 3.0 0.00 1.46 1.41 80 1010.9
20260509201537 73 98 0.0 2.0 0.00 1.46 1.41 80 1010.8
20260509200038 73 97 1.0 2.0 0.00 1.46 1.41 80 1011.2
20260509194547 73 0 2.0 4.0 0.00 1.49 1.41 79 1011.2
20260509193043 73 0 0.0 2.0 0.00 1.49 1.41 81 1011.2
20260509191555 72 134 1.0 2.0 0.00 1.49 1.41 82 1011.3
20260509190036 72 0 0.0 5.0 0.00 1.49 1.41 81 1011.3
20260509184554 71 0 0.0 4.0 0.00 1.49 1.41 85 1011.3
20260509183049 70 0 1.0 3.0 0.00 1.49 1.41 87 1011.6
20260509181538 70 83 2.0 6.0 0.00 1.49 1.41 86 1011.5
20260509180040 70 42 0.0 3.0 0.00 1.49 1.41 88 1011.7
20260509174548 69 0 0.0 3.0 0.00 1.49 1.41 89 1012.1
20260509173050 68 323 0.0 3.0 0.00 1.49 1.41 89 1012.4
20260509171538 68 288 2.0 4.0 0.00 1.49 1.41 90 1012.6
20260509170043 68 275 0.0 2.0 0.00 1.49 1.41 92 1012.6
20260509164543 67 0 0.0 2.0 0.00 1.49 1.41 93 1012.6
20260509163041 67 275 0.0 2.0 0.00 1.49 1.41 95 1012.8
20260509161539 66 275 0.0 2.0 0.00 1.49 1.41 95 1012.3
20260509160038 66 274 1.0 3.0 0.00 1.49 1.41 97 1013.0
20260509154542 65 0 0.0 2.0 0.00 1.49 1.41 98 1012.7
20260509153053 65 273 0.0 3.0 0.00 1.49 1.41 97 1012.6
20260509151538 65 0 1.0 5.0 0.00 1.49 1.41 97 1013.0
20260509150038 64 315 2.0 8.0 0.00 1.49 1.41 97 1012.7
20260509144544 64 303 1.0 4.0 0.02 1.49 1.41 97 1011.8
20260509143043 64 334 1.0 6.0 0.03 1.49 1.41 97 1011.6